オルバース彗星

13P/Olbers (2024)

English version
Home page
Updated on February 10, 2024

---------------------------------------------------------------------

・ プロフィール

検出日 2023年8月13日
検出光度 21.6等
検出者 A. Hale (Las Cumbres Observatory)

・ 写真集

・ 軌道要素

Epoch 2023 Sept. 13.0 TT = JDT 2460200.5
T 2024 June 30.03439 TT                                 Rudenko
q   1.1752600            (2000.0)            P               Q
n   0.01418110     Peri.   64.40144     -0.60892557     -0.37148949
a  16.9042581      Node    85.87509     +0.18565585     -0.92575983
e   0.9304755      Incl.   44.64246     +0.77119489     -0.07045784
P  69.5
>From 765 observations 1956 Jan. 13-2024 Jan. 26, mean residual 0".5.
     Nongravitational parameters A1 = +0.36, A2 = +0.1087.

・ 星図

・ 光度変化

        m1 = 4.5 + 5 logΔ + 22.0 log r  [ ,0]  (              〜2024年 6月29日)
        m1 = 5.0 + 5 logΔ + 15.0 log r  [0, ]  (2024年 6月29日〜              )

---------------------------------------------------------------------

軌道要素はM.P.E.C. 2024-B140に掲載されたものです。
星図はステラナビゲータ Ver.10 (アストロアーツ) で作成したものです。
光度グラフはComet for Windowsで作成したものです。

---------------------------------------------------------------------

Copyright(C) Seiichi Yoshida (comet@aerith.net). All rights reserved.